STARLINK-32419, 61637

Orbit data source: Space-Track

STARLINK-32419, 61637 is a payload satellite owned by SpaceX/Seattle (US) in LEO that was launched on Wed, 23 Oct 2024 UTC via an FALCON 9 launch vehicle from the Air Force Eastern Test Range (AFETR). Payload-class satellites include a variety of spacecraft equipped with specific instruments for various scientific and technological missions. These include communications satellites like Starlink; space stations such as the ISS; scientific satellites like the Hubble; Earth observation satellites from companies like Planet Labs, Umbra, and HawkEye 360; GPS; miniature CubeSats for education and research; and military/defense satellites.

Loading next visibility...
Identifier
61637, 2024-191S
Orbit
LEO
Country
Flag of USUS
Related business
Manufacturer
SpaceX/Seattle
Mission
Operational Commercial Communications
Bus & Motor
STARLINK V2M, Unknown motor
Mass
730 kg wet, ~700 kg dry
Launch date (UTC)
2024-10-23 (1 year ago)
Launch vehicle
FALCON 9
Launch site
Air Force Eastern Test Range (AFETR)
Object type
Payload
Rocket body
Debris
Shape & HBR
Box + 2 Pan, 17.7 m
Radar Cross Section
33.884 m², Large (>1 m²)

Expand to show TLE details & history
Last TLE update: 17 hours ago

TLE from 17 hours ago
0 STARLINK-32419
1 61637U 24191S   25309.25360457 -.00001175  00000-0 -33213-4 0  9993
2 61637  43.0018 137.4121 0000100 198.0798 162.0051 15.27583165 58509
Epoch: 2025-11-05T06:05Z
TLE epoch observation values (Epoch: 2025-11-05T06:05:11.434Z)
Latitude
0.00003°
Longitude
1.38556°
Altitude
482.88 km
Speed
7.626 km/s
True Right ascension
09h 09m 38s
True Declination
0° 00' 00"
Sunlit
Object was in daylight at epoch
Visualization orbit readout
Latitude
Unknown
Longitude
Unknown
Altitude
Unknown
Speed
Unknown
Apparent Right ascension
Unknown
Apparent Declination
Unknown
Sunlit
N/A
Visualization observer readout
Local Sidereal Time
19:10:43
Azimuth
Unknown
Elevation
Unknown
Doppler factor
Unknown
Orbital elements
Apogee altitude
485.053 km
Perigee altitude
484.916 km
Semi-major axis
6,863.121 km
Eccentricity
0.00001
Inclination
43.0018°
RAAN
137.4121°
Arg. of periapsis
198.0798°
True anomaly
162.00545°
Mean anomaly
162.0051°
Eccentric anomaly
162.00528°
Mean motion
3.81734 °/min
Orbital period
94.31 mins
BSTAR
-0.000033213
Loading maneuver chart data...
Computing Atmospheric mass density...
Loading historical data...
Loading historical data...
Loading historical data...
Loading historical data...
Loading historical data...
Loading historical data...
Loading historical data...

Documentation

Showing up to 5 results
|